Time,TemperatureF,DewpointF,PressureIn,WindDirection,WindDirectionDegrees,WindSpeedMPH,WindSpeedGustMPH,Humidity,HourlyPrecipIn,Conditions,Clouds,dailyrainin,SoftwareType,DateUTC
2013-05-31 00:00:00,64.3,60.7,30.06,SSE,161,0.0,0.0,88,0.00,,---,0.00,VWS V12.07,2013-05-31 04:00:00,
2013-05-31 00:30:00,64.3,60.7,30.06,SSE,161,0.0,0.0,88,0.00,,---,0.00,VWS V12.07,2013-05-31 04:30:00,
2013-05-31 01:00:00,63.7,60.1,30.07,SSE,161,0.0,0.0,88,0.00,,---,0.00,VWS V12.07,2013-05-31 05:00:00,
2013-05-31 01:30:00,62.4,59.7,30.06,SSE,161,0.0,0.0,91,0.00,,---,0.00,VWS V12.07,2013-05-31 05:30:00,
2013-05-31 02:00:00,62.1,59.8,30.06,SSE,161,0.0,0.0,92,0.00,,---,0.00,VWS V12.07,2013-05-31 06:00:00,
2013-05-31 02:30:00,61.8,60.1,30.05,SSW,199,0.0,2.0,94,0.00,,---,0.00,VWS V12.07,2013-05-31 06:30:00,
2013-05-31 03:00:00,64.5,61.8,30.04,East,93,0.0,0.0,91,0.00,,---,0.00,VWS V12.07,2013-05-31 07:00:00,
2013-05-31 03:30:00,66.0,61.7,30.03,SW,236,0.0,0.0,86,0.00,,---,0.00,VWS V12.07,2013-05-31 07:30:00,
2013-05-31 04:00:00,65.8,61.8,30.03,SSW,198,0.0,0.0,87,0.00,,---,0.00,VWS V12.07,2013-05-31 08:00:00,
2013-05-31 04:30:00,66.1,62.5,30.02,SSE,147,0.0,0.0,88,0.00,,---,0.00,VWS V12.07,2013-05-31 08:30:00,
2013-05-31 05:00:00,66.3,62.0,30.02,East,86,0.0,0.0,86,0.00,,---,0.00,VWS V12.07,2013-05-31 09:00:00,
2013-05-31 05:30:00,66.1,62.1,30.04,SW,236,0.0,0.0,87,0.00,,---,0.00,VWS V12.07,2013-05-31 09:30:00,
2013-05-31 06:00:00,65.8,62.2,30.06,SW,236,0.0,0.0,88,0.00,,---,0.00,VWS V12.07,2013-05-31 10:00:00,
2013-05-31 06:30:00,65.2,62.2,30.07,SW,236,0.0,0.0,90,0.00,,---,0.00,VWS V12.07,2013-05-31 10:30:00,
2013-05-31 07:00:00,65.5,62.2,30.07,SSE,153,0.0,0.0,89,0.00,,---,0.00,VWS V12.07,2013-05-31 11:00:00,
2013-05-31 07:30:00,66.0,62.3,30.09,SSE,153,0.0,0.0,88,0.00,,---,0.00,VWS V12.07,2013-05-31 11:30:00,
2013-05-31 08:00:00,66.8,62.5,30.08,SE,136,0.0,1.0,86,0.00,,---,0.00,VWS V12.07,2013-05-31 12:00:00,
2013-05-31 08:30:00,67.9,61.9,30.10,SSE,154,0.0,0.0,81,0.00,,---,0.00,VWS V12.07,2013-05-31 12:30:00,
2013-05-31 09:00:00,68.6,61.8,30.10,East,96,0.0,1.0,79,0.00,,---,0.00,VWS V12.07,2013-05-31 13:00:00,
2013-05-31 09:30:00,69.8,61.5,30.10,WSW,248,1.0,4.0,75,0.00,,---,0.00,VWS V12.07,2013-05-31 13:30:00,
2013-05-31 10:00:00,70.9,61.4,30.10,SSW,209,0.0,5.0,72,0.00,,---,0.00,VWS V12.07,2013-05-31 14:00:00,
2013-05-31 10:30:00,72.5,62.6,30.10,South,180,0.0,3.0,71,0.00,,---,0.00,VWS V12.07,2013-05-31 14:30:00,
2013-05-31 11:00:00,71.8,61.9,30.10,SSW,200,4.0,6.0,71,0.00,,---,0.00,VWS V12.07,2013-05-31 15:00:00,
2013-05-31 11:30:00,73.0,62.7,30.10,South,184,5.0,7.0,70,0.00,,---,0.00,VWS V12.07,2013-05-31 15:30:00,
2013-05-31 12:00:00,75.4,62.8,30.09,SSW,211,2.0,4.0,65,0.00,,---,0.00,VWS V12.07,2013-05-31 16:00:00,
2013-05-31 12:30:00,75.8,62.3,30.08,SSE,165,6.0,10.0,63,0.00,,---,0.00,VWS V12.07,2013-05-31 16:30:00,
2013-05-31 13:00:00,76.5,63.4,30.06,South,178,1.0,8.0,64,0.00,,---,0.00,VWS V12.07,2013-05-31 17:00:00,
2013-05-31 13:30:00,78.3,64.7,30.05,WSW,248,0.0,2.0,63,0.00,,---,0.00,VWS V12.07,2013-05-31 17:30:00,
2013-05-31 14:00:00,78.3,63.3,30.04,South,180,3.0,4.0,60,0.00,,---,0.00,VWS V12.07,2013-05-31 18:00:00,
2013-05-31 14:30:00,79.2,64.1,30.02,SSE,159,2.0,4.0,60,0.00,,---,0.00,VWS V12.07,2013-05-31 18:30:00,
2013-05-31 15:00:00,79.2,63.2,30.01,South,169,2.0,11.0,58,0.00,,---,0.00,VWS V12.07,2013-05-31 19:00:00,
2013-05-31 15:30:00,79.8,62.2,30.01,South,170,0.0,2.0,55,0.00,,---,0.00,VWS V12.07,2013-05-31 19:30:00,
2013-05-31 16:00:00,79.6,63.5,30.00,SSW,193,2.0,4.0,58,0.00,,---,0.00,VWS V12.07,2013-05-31 20:00:00,
2013-05-31 17:30:00,78.6,61.1,29.99,SSW,213,0.0,6.0,55,0.00,,---,0.00,VWS V12.07,2013-05-31 21:30:00,
2013-05-31 17:59:00,78.8,62.8,29.99,South,170,0.0,4.0,58,0.00,,---,0.00,VWS V12.07,2013-05-31 21:59:00,
2013-05-31 18:30:00,77.6,60.7,29.98,SSW,209,0.0,4.0,56,0.00,,---,0.00,VWS V12.07,2013-05-31 22:30:00,
2013-05-31 19:00:00,76.8,61.9,29.98,SSW,200,0.0,3.0,60,0.00,,---,0.00,VWS V12.07,2013-05-31 23:00:00,
2013-05-31 19:30:00,75.4,61.5,29.98,SE,144,0.0,9.0,62,0.00,,---,0.00,VWS V12.07,2013-05-31 23:30:00,
2013-05-31 20:00:00,73.7,62.5,29.99,East,101,0.0,3.0,68,0.00,,---,0.00,VWS V12.07,2013-06-01 00:00:00,
2013-05-31 20:30:00,72.0,62.1,29.99,SSW,195,0.0,0.0,71,0.00,,---,0.00,VWS V12.07,2013-06-01 00:30:00,
2013-05-31 21:00:00,68.8,62.0,30.00,SSW,195,0.0,0.0,79,0.00,,---,0.00,VWS V12.07,2013-06-01 01:00:00,
2013-05-31 21:30:00,67.3,61.6,30.00,South,183,0.0,1.0,82,0.00,,---,0.00,VWS V12.07,2013-06-01 01:30:00,
2013-05-31 22:00:00,67.1,61.4,30.00,South,183,0.0,0.0,82,0.00,,---,0.00,VWS V12.07,2013-06-01 02:00:00,
2013-05-31 22:30:00,66.4,61.4,30.00,South,183,0.0,0.0,84,0.00,,---,0.00,VWS V12.07,2013-06-01 02:30:00,
2013-05-31 23:00:00,65.8,61.5,30.00,South,183,0.0,0.0,86,0.00,,---,0.00,VWS V12.07,2013-06-01 03:00:00,
2013-05-31 23:30:00,65.2,61.6,29.99,South,183,0.0,0.0,88,0.00,,---,0.00,VWS V12.07,2013-06-01 03:30:00,